Location: Unspecified
(0.0000°N, 0.0000°E)
Time: 11:47:10
(UTC+00:00)

USA 184 - Pass Details

Date: 10 June 2023
Orbit: 1078 x 39274 km, 63.5° (Epoch: 28 February)

Event Time Altitude Azimuth Distance (km) Brightness Sun altitude
Rises 09:03:26 0° 220° (SW) 6,095 6.2 41.5°
Reaches altitude 10° 09:05:48 10° 224° (SW) 5,724 6.1 42.0°
Maximum altitude 20:15:56 87° 255° (WSW) 6,843 6.6 -31.1°
Enters shadow 20:30:23 30° 164° (SSE) 4,954 5.7 -34.3°
